Weather History for Cloquet, MN

Change the Weather History Date:

Tuesday, September 17, 2013

  Actual Average Record
Temperature  
Mean Temperature 52 °F -  
Max Temperature 66 °F 63 °F 78 °F (2003)
Min Temperature 39 °F 44 °F 35 °F (2002)
Degree Days  
Heating Degree Days 12    
Growing Degree Days 2 (Base 50)    
Moisture  
Dew Point 44 °F    
Average Humidity 71    
Maximum Humidity 100    
Minimum Humidity 49    
Precipitation  
Precipitation 0.00 in - - ()
Sea Level Pressure  
Sea Level Pressure 30.12 in    
Wind  
Wind Speed 4 mph (SSE)    
Max Wind Speed 15 mph    
Max Gust Speed 22 mph    
Visibility 10 miles    
Events      
Averages and records for this station are not official NWS values.
T = Trace of Precipitation, MM = Missing Value Source: NWS Daily Summary

Daily Weather History Graph

Daily Weather History Graph

Search for Another Location

Airport:

Trip Planner

Search our weather history database for the weather conditions in past years. The results will help you decide how hot, cold, wet, or windy it might be!

Date:

Astronomy

Sep. 17, 2013 Rise Set
Actual Time 6:50 AM CDT 7:17 PM CDT
Civil Twilight 6:20 AM CDT 7:47 PM CDT
Nautical Twilight 5:44 AM CDT 8:23 PM CDT
Astronomical Twilight 5:07 AM CDT 9:00 PM CDT
Moon 6:07 PM CDT (9/17) 4:40 AM CDT (9/17)
Length of Visible Light 13h 27m
Length of Day
12h 26m
Waxing Gibbous, 96% of the Moon is Illuminated
Sep 17
Waxing Gibbous
Sep 19
Full
Sep 26
Last Quarter
Oct 4
New
Oct 11
First Quarter

Hourly Weather History & Observations

Time (CDT) Temp. Windchill Dew Point Humidity Pressure Visibility Wind Dir Wind Speed Gust Speed Precip Events Conditions
12:16 AM 42.8 °F - 42.8 °F 100% 30.26 in 10.0 mi Calm Calm - N/A   Clear
12:36 AM 44.6 °F - 42.8 °F 93% 30.26 in 10.0 mi Calm Calm - N/A   Clear
12:56 AM 42.8 °F - 41.0 °F 93% 30.26 in 10.0 mi Calm Calm - N/A   Clear
1:16 AM 44.6 °F - 39.2 °F 81% 30.25 in 10.0 mi Calm Calm - N/A   Clear
1:35 AM 44.6 °F - 39.2 °F 81% 30.25 in 10.0 mi Calm Calm - N/A   Clear
1:56 AM 44.6 °F - 37.4 °F 76% 30.25 in 10.0 mi Calm Calm - N/A   Clear
2:16 AM 44.6 °F - 37.4 °F 76% 30.25 in 10.0 mi Calm Calm - N/A   Clear
2:36 AM 44.6 °F - 37.4 °F 76% 30.25 in 10.0 mi Calm Calm - N/A   Clear
2:56 AM 39.2 °F - 37.4 °F 93% 30.25 in 10.0 mi Calm Calm - N/A   Clear
3:16 AM 39.2 °F - 37.4 °F 93% 30.25 in 10.0 mi Calm Calm - N/A   Clear
3:36 AM 42.8 °F - 39.2 °F 87% 30.25 in 10.0 mi Calm Calm - N/A   Clear
3:56 AM 42.8 °F - 37.4 °F 81% 30.24 in 10.0 mi Calm Calm - N/A   Clear
4:16 AM 41.0 °F - 37.4 °F 87% 30.24 in 10.0 mi Calm Calm - N/A   Clear
4:35 AM 42.8 °F - 37.4 °F 81% 30.24 in 10.0 mi Calm Calm - N/A   Clear
4:56 AM 42.8 °F - 37.4 °F 81% 30.23 in 10.0 mi Calm Calm - N/A   Clear
5:16 AM 42.8 °F - 37.4 °F 81% 30.23 in 10.0 mi Calm Calm - N/A   Clear
5:35 AM 41.0 °F - 37.4 °F 87% 30.22 in 10.0 mi Calm Calm - N/A   Clear
5:56 AM 41.0 °F - 37.4 °F 87% 30.22 in 10.0 mi Calm Calm - N/A   Clear
6:16 AM 39.2 °F - 37.4 °F 93% 30.22 in 10.0 mi Calm Calm - N/A   Clear
6:35 AM 39.2 °F - 37.4 °F 93% 30.22 in 10.0 mi Calm Calm - N/A   Clear
6:56 AM 39.2 °F - 37.4 °F 93% 30.22 in 10.0 mi Calm Calm - N/A   Clear
7:16 AM 39.2 °F - 37.4 °F 93% 30.22 in 10.0 mi Calm Calm - N/A   Clear
7:36 AM 41.0 °F - 37.4 °F 87% 30.21 in 10.0 mi Calm Calm - N/A   Clear
7:55 AM 42.8 °F - 39.2 °F 87% 30.22 in 10.0 mi Calm Calm - N/A   Clear
8:16 AM 44.6 °F - 41.0 °F 87% 30.21 in 10.0 mi Calm Calm - N/A   Clear
8:36 AM 44.6 °F 43.1 °F 41.0 °F 87% 30.20 in 10.0 mi SE 3.5 mph - N/A   Clear
8:55 AM 46.4 °F 45.2 °F 42.8 °F 87% 30.20 in 10.0 mi South 3.5 mph - N/A   Clear
9:16 AM 48.2 °F - 42.8 °F 82% 30.19 in 10.0 mi South 6.9 mph - N/A   Clear
9:36 AM 51.8 °F - 44.6 °F 76% 30.19 in 10.0 mi South 5.8 mph - N/A   Clear
9:56 AM 53.6 °F - 44.6 °F 72% 30.18 in 10.0 mi SSE 8.1 mph - N/A   Clear
10:16 AM 55.4 °F - 46.4 °F 72% 30.18 in 10.0 mi SSE 6.9 mph - N/A   Clear
10:36 AM 55.4 °F - 46.4 °F 72% 30.17 in 10.0 mi South 6.9 mph - N/A   Clear
10:56 AM 57.2 °F - 46.4 °F 67% 30.17 in 10.0 mi South 8.1 mph - N/A   Clear
11:16 AM 60.8 °F - 46.4 °F 59% 30.16 in 10.0 mi South 10.4 mph - N/A   Clear
11:36 AM 60.8 °F - 46.4 °F 59% 30.15 in 10.0 mi SSE 11.5 mph - N/A   Clear
11:56 AM 62.6 °F - 48.2 °F 59% 30.14 in 10.0 mi South 13.8 mph 17.3 mph N/A   Scattered Clouds
12:16 PM 62.6 °F - 46.4 °F 55% 30.13 in 10.0 mi South 8.1 mph 16.1 mph N/A   Scattered Clouds
12:36 PM 62.6 °F - 46.4 °F 55% 30.12 in 10.0 mi SSW 10.4 mph 21.9 mph N/A   Scattered Clouds
12:56 PM 64.4 °F - 46.4 °F 52% 30.11 in 10.0 mi South 10.4 mph 20.7 mph N/A   Scattered Clouds
1:16 PM 64.4 °F - 46.4 °F 52% 30.10 in 10.0 mi South 12.7 mph 18.4 mph N/A   Clear
1:35 PM 64.4 °F - 46.4 °F 52% 30.09 in 10.0 mi South 15.0 mph 19.6 mph N/A   Clear
1:56 PM 64.4 °F - 46.4 °F 52% 30.08 in 10.0 mi SSE 15.0 mph 21.9 mph N/A   Clear
2:16 PM 66.2 °F - 46.4 °F 49% 30.07 in 10.0 mi South 10.4 mph 18.4 mph N/A   Clear
2:35 PM 66.2 °F - 46.4 °F 49% 30.06 in 10.0 mi South 12.7 mph 18.4 mph N/A   Clear
2:56 PM 66.2 °F - 46.4 °F 49% 30.05 in 10.0 mi South 9.2 mph 16.1 mph N/A   Clear
3:16 PM 66.2 °F - 46.4 °F 49% 30.05 in 10.0 mi South 11.5 mph 18.4 mph N/A   Clear
3:36 PM 66.2 °F - 46.4 °F 49% 30.03 in 10.0 mi SE 12.7 mph - N/A   Clear
3:56 PM 66.2 °F - 46.4 °F 49% 30.03 in 10.0 mi SSE 12.7 mph 17.3 mph N/A   Clear
4:16 PM 66.2 °F - 48.2 °F 52% 30.02 in 10.0 mi SSE 13.8 mph 19.6 mph N/A   Scattered Clouds
4:36 PM 66.2 °F - 46.4 °F 49% 30.02 in 10.0 mi SSE 8.1 mph 19.6 mph N/A   Clear
4:56 PM 66.2 °F - 48.2 °F 52% 30.01 in 10.0 mi SSE 9.2 mph - N/A   Clear
5:16 PM 66.2 °F - 46.4 °F 49% 30.00 in 10.0 mi South 10.4 mph 16.1 mph N/A   Clear
5:36 PM 66.2 °F - 48.2 °F 52% 30.00 in 10.0 mi SSE 10.4 mph 16.1 mph N/A   Clear
5:56 PM 64.4 °F - 48.2 °F 56% 30.00 in 10.0 mi SSE 6.9 mph - N/A   Clear
6:16 PM 64.4 °F - 48.2 °F 56% 30.00 in 10.0 mi SSE 5.8 mph - N/A   Clear
6:35 PM 64.4 °F - 48.2 °F 56% 29.99 in 10.0 mi SSE 4.6 mph - N/A   Mostly Cloudy
6:56 PM 64.4 °F - 48.2 °F 56% 29.99 in 10.0 mi SSE 8.1 mph - N/A   Overcast
7:16 PM 62.6 °F - 46.4 °F 55% 30.00 in 10.0 mi South 8.1 mph - N/A   Overcast
7:36 PM 62.6 °F - 48.2 °F 59% 29.99 in 10.0 mi SSE 3.5 mph - N/A   Overcast
7:56 PM 60.8 °F - 48.2 °F 63% 29.98 in 10.0 mi SE 4.6 mph - N/A   Overcast
8:16 PM 60.8 °F - 48.2 °F 63% 29.99 in 10.0 mi SE 5.8 mph - N/A   Overcast
8:36 PM 60.8 °F - 48.2 °F 63% 29.99 in 10.0 mi SSE 5.8 mph - N/A   Overcast
8:55 PM 60.8 °F - 48.2 °F 63% 29.99 in 10.0 mi SSE 4.6 mph - N/A   Overcast
9:16 PM 60.8 °F - 48.2 °F 63% 29.98 in 10.0 mi SSE 6.9 mph - N/A   Overcast
9:35 PM 60.8 °F - 48.2 °F 63% 29.98 in 10.0 mi South 9.2 mph - N/A   Overcast
9:56 PM 59.0 °F - 50.0 °F 72% 29.98 in 10.0 mi South 8.1 mph - N/A   Overcast
10:16 PM 59.0 °F - 50.0 °F 72% 29.98 in 10.0 mi SSE 8.1 mph - N/A   Overcast
10:35 PM 59.0 °F - 50.0 °F 72% 29.98 in 10.0 mi South 9.2 mph 16.1 mph N/A   Overcast
10:56 PM 57.2 °F - 51.8 °F 82% 29.98 in 10.0 mi South 9.2 mph 16.1 mph N/A   Overcast
11:16 PM 57.2 °F - 51.8 °F 82% 29.97 in 10.0 mi South 9.2 mph 16.1 mph N/A   Overcast
11:35 PM 57.2 °F - 51.8 °F 82% 29.97 in 10.0 mi South 11.5 mph - N/A   Overcast
11:56 PM 57.2 °F - 51.8 °F 82% 29.97 in 10.0 mi South 8.1 mph - N/A   Overcast